Погода в Якутске

Погода в Якутске : погода сейчас, прогноз погоды и архив. Всё, что Вы хотите узнать о погоде в Якутске!

Хотите узнать прогноз погоды в Якутске? Тогда Вам сюда: Погода в Якутске

Поиск расширенной информации на нашем сайте:

Другие новости

Новости СМИ2

Главная страница сайта

Новости сайта

02.10.2013

Напоминаем, что на нашем новом сайте вы можете получить высокодетализированные прогнозы погоды по пунктам России, СНГ и мира (включающие важные для авиации метеовеличины, такие как направление и скорость ветра, видимость, явления погоды, количество и форма облачности, нижняя и верхняя граница облачности), а также ознакомиться с разнообразными материалами по авиационной метеорологии и подборкой полезных ссылок на эту тему.

Сайт Метеоцентр.Азия посвящён разработке технологий оптимизации авиаметеорологического обслуживания, включая проектирование и перспективное создание нескольких автоматизированных авиаметеорологических систем:
- система выпуска высокодетальных прогностических карт явлений погоды для нижнего воздушного пространства по России и ближнему зарубежью;
- система верификации прогнозов TAF (выпускаемых синоптиками официальных АМСГ РФ и ближнего зарубежья) и AUTOTAF (выпускаемых сайтом Метеоцентр.Азия) - выявление ошибок, онлайн-сопоставление с фактической погодой METAR, автоматическое внесение коррективов в прогнозы при резком отклонении фактической погоды от прогноза, подсчёт оправдываемости прогнозов по элементам и в целом;
- система обработки, анализа и отображения авиаметеорологической информации для применения провайдерами метеорологической информации.


Погода в Якутске - сегодня

Время (UTC), дата Ветер
(°,м/с) 
Видим.   Явления Облачность Т
(°С)
Тd
(°С)
f(%) Тe
(°С)
Pmin
(гПа)
dP
(гПа)
Po
(мм)
O2
(г/м3)
Тmin Tmax R s Состояние
почвы
06 21.03.17 120 (ЮВ) 20000 м    ясно 
-1.5 -9.2 56 -1  1019.6  -1  755  307           
09 21.03.17 210 (ЮЗ) 20000 м    ясно 
-2.1 -9.8 56 -2  1019.4  -0.3  755  307           
12 21.03.17 310 (СЗ) 20000 м    ясно 
-4.9 -11.2 61 -6  1019.8  0.4  755  311    +0.9       
15 21.03.17 300 (СЗ) 20000 м    ясно 
-5.8 -10.2 71 -7  1020.1  0.2  755  312           
18 21.03.17 280 (З) 20000 м    ясно 
-8.8 -11.4 81 -9  1019.9  -0.4  755  315           
21 21.03.17 тихо ()   20000 м    3/0 верхняя 
[Ci fib]
-11.8 -13.4 88 -12  1019.9  0.1  755  319           
00 22.03.17 170 (Ю) 20000 м    4/0 верхняя 
[Ci fib]
-5.9 -11 67 -6  1019.8  0.1  755  312  -14.1      28  равномерный
сухой снег
100% 
03 22.03.17 150 (ЮВ) 20000 м    3/0 верхняя 
[Ci fib]
-3.8 -9.8 63 -5  1019.7  0.1  755  310           
06 22.03.17 090 (В) 20000 м    6/5 600 м верхняя 
[Cu med, cong|Ci fib]
-0.5 -8.9 53 1019.5  -0.1  755  306           
09 22.03.17 080 (В) 20000 м    8/6 600 м средняя, верхняя 
[Cu med, cong|Ac trans|Ci fib]
-1.8 -9 58 -1  1020.8  1.2  756  308           
12 22.03.17 250 (З) 20000 м    8/4 600 м средняя, верхняя 
[Cu med, cong|Ac trans|Ci fib]
-4.8 -8.5 75 -4  1021.9  757  311    +1.7       
15 22.03.17 300 (СЗ) 20000 м    10/6 1110 м средняя 
[Sc|Ac trans]
-3 -8.9 64 -4  1022.2  0.3  757  309           
18 22.03.17 290 (З) 20000 м    8/3 1000 м средняя, верхняя 
[Sc|Ac trans|Ci fib]
-7 -10.6 75 -8  1022.7  0.3  757  314           
21 22.03.17 270 (З) 20000 м    4/0 верхняя 
[Ci fib]
-8 -10.8 80 -10  1023.4  0.6  758  316           
00 23.03.17 150 (ЮВ) 20000 м    4/0 верхняя 
[Ci fib]
-5.5 -10.4 68 -5  1023.7  0.4  758  313  -10.8      28  равномерный
сухой снег
100% 
03 23.03.17 190 (Ю) 20000 м    10/0 верхняя 
[Ci fib]
-2.6 -9.3 60 -4  1023  -0.5  758  309           
06 23.03.17 010 (С) 20000 м    8/3 1000 м средняя, верхняя 
[Cu med, cong|Ac trans|Ci fib]
+1.3 -8.4 48 +1  1021.6  -1.2  757  304           
09 23.03.17 300 (СЗ) 20000 м    10/4 1000 м средняя, верхняя 
[Sc diur, vesp|Ac trans|Ci fib]
-0.2 -8.4 54 -1  1021.8  0.1  757  306           
12 23.03.17 290 (З) 20000 м    6/0 верхняя 
[Ci fib]
-7.3 -10.1 80 -7  1022.2  0.1  757  314    +1.7       
15 23.03.17 тихо ()   20000 м    ясно 
-8 -10.1 85 -8  1021.9  -0.4  757  315           
18 23.03.17 140 (ЮВ) 20000 м    8/0 верхняя 
[Ci fib]
-10.9 -12.8 86 -11  1021.5  -0.5  756  319           
21 23.03.17 тихо ()   20000 м    10/0 средняя, верхняя 
[Ac trans|Ci fib]
-13.2 -15.1 86 -13  1021.2  -0.5  756  321           
00 24.03.17 140 (ЮВ) 20000 м  слаб. ливневой снег  10/6 600 м кучево-дожд., средняя, верхняя 
[Cb cap|Ac trans|Ci fib]
-8.9 -11.6 81 -9  1020.7    756  316  -13.9    0.0  28  равномерный
сухой снег
100% 
03 24.03.17 180 (Ю) 20000 м  в посл. час ливневой снег  10/6 600 м кучево-дожд., средняя, верхняя 
[Cb cap|Ac trans|Ci fib]
-2.7 -7.8 68 -2  1019.4  -1  755  308           
06 24.03.17 170 (Ю) 20000 м  слаб. ливневой снег  10/8 930 м кучево-дожд., средняя, верхняя 
[Cb cap|Ac trans|Ci fib]
-0.8 -3.8 80 1018.3  -1  754  305           
Время (UTC), дата Ветер
(°,м/с) 
Видим.   Явления Облачность Т
(°С)
Тd
(°С)
f(%) Тe
(°С)
Pmin
(гПа)
dP
(гПа)
Po
(мм)
O2
(г/м3)
Тmin Tmax R s Состояние
почвы

Для получения пояснительной информации подведите курсор к названию столбца.

ПОГОДА в Якутске - архив

Всё, что Вы хотите узнать о погоде в Якутске - удобно и подробно!

Выберите нужную дату (начиная с 1 января 2015* года) и нажмите кнопку "Найти".
Будут отображены архивные сводки погоды по пункту Якутск, начиная с указанной даты.


Отображать данные в формате CSV (для использования в таблицах Excel)


Внимание! Наш архив погоды предназначен исключительно для личного некоммерческого использования в познавательных целях. Если Вам необходимы официальные справки о состоянии погоды (для производственных, юридических, коммерческих и т.п. целей), обращайтесь в органы Росгидромета.

*Примечание: данная дата относится к архиву по метеостанциям СССР (Россия, СНГ, Балтия).
Архив по метеостанциям Зарубежной Европы и Азии (кроме Китая) хранится 10 дней, по другим регионам земного шара (Китай, Африка, Америка, Австралия, Океания) - 1 день.

Якутск - район местоположения метеостанции


Название, широта, долгота, высота метеостанции:
Якутск 62°ш. 129.7°д. 101 м над ур. моря [Российская Федерация]

Дополнительная информация

В oтличие oт бoльшинства пoгoдных сайтoв мы публикуем пoдрoбную метеoинфoрмацию в детальнoм прoфессиoнальнoм фoрмате.

Характеристики температуры и влажнoсти вoздуха измеряются на высoте 2 м в тени вдали oт зданий и деревьев.
Скoрoсть ветра измеряется на высoте 10 м (на урoвне рoста челoвека скoрoсть ветра ниже в 1.5-2 раза). Если метеoстанция нахoдится в гoрoде или в лесу, тo скoрoсть ветра занижена на 2-4 м/с пo сравнению с oткрытым местoм. Скoрoсть ветра над акватoриями крупных рек и oзёр, а также на вершинах хoлмoв на 2-5 м/с выше, чем в oбычных услoвиях.
Атмoсфернoе давление в разных тoчках местнoсти мoжет значительнo oтличаться oт давления на метеoстанции, в зависимoсти oт услoвий рельефа (при пoдъёме на 10 м давление пoнижается примернo на 1 мм рт.ст.).